Time,TemperatureF,DewpointF,PressureIn,WindDirection,WindDirectionDegrees,WindSpeedMPH,WindSpeedGustMPH,Humidity,HourlyPrecipIn,Conditions,Clouds,dailyrainin,SoftwareType,DateUTC
2013-02-17 00:02:00,29.5,2.5,29.95,SSE,148,0.0,0.0,31,0.00,,,0.00,meteohub,2013-02-17 06:02:00,
2013-02-17 00:07:00,29.3,2.5,29.95,SSE,149,0.0,0.0,31,0.00,,,0.00,meteohub,2013-02-17 06:07:00,
2013-02-17 00:12:00,29.3,2.5,29.95,SSE,149,0.0,0.0,31,0.00,,,0.00,meteohub,2013-02-17 06:12:00,
2013-02-17 00:17:00,29.1,2.3,29.95,SSE,149,0.0,0.0,31,0.00,,,0.00,meteohub,2013-02-17 06:17:00,
2013-02-17 00:22:00,28.9,2.1,29.95,SSE,148,0.0,0.0,31,0.00,,,0.00,meteohub,2013-02-17 06:22:00,
2013-02-17 00:27:00,28.8,1.9,29.95,SSE,149,0.0,0.0,31,0.00,,,0.00,meteohub,2013-02-17 06:27:00,
2013-02-17 00:32:00,28.8,1.9,29.95,SSE,149,0.0,0.0,31,0.00,,,0.00,meteohub,2013-02-17 06:32:00,
2013-02-17 00:37:00,28.8,1.9,29.95,SSE,148,0.0,0.0,31,0.00,,,0.00,meteohub,2013-02-17 06:37:00,
2013-02-17 00:42:00,28.6,1.8,29.95,SSE,149,0.0,0.0,31,0.00,,,0.00,meteohub,2013-02-17 06:42:00,
2013-02-17 00:47:00,28.6,1.8,29.95,SSE,148,0.0,0.0,31,0.00,,,0.00,meteohub,2013-02-17 06:47:00,
2013-02-17 00:52:00,28.4,2.3,29.95,SSE,148,0.0,0.0,32,0.00,,,0.00,meteohub,2013-02-17 06:52:00,
2013-02-17 00:57:00,28.2,2.1,29.95,SSE,148,0.0,0.0,32,0.00,,,0.00,meteohub,2013-02-17 06:57:00,
2013-02-17 01:03:00,28.4,2.3,29.95,SSE,149,0.0,0.0,32,0.00,,,0.00,meteohub,2013-02-17 07:03:00,
2013-02-17 01:08:00,28.6,2.5,29.95,SSE,148,0.0,0.0,32,0.00,,,0.00,meteohub,2013-02-17 07:08:00,
2013-02-17 01:13:00,28.9,2.8,29.95,SSE,148,0.0,0.0,32,0.00,,,0.00,meteohub,2013-02-17 07:13:00,
2013-02-17 01:18:00,29.1,2.8,29.95,SSE,148,0.0,0.0,32,0.00,,,0.00,meteohub,2013-02-17 07:18:00,
2013-02-17 01:23:00,28.9,2.8,29.95,SSE,148,0.0,0.0,32,0.00,,,0.00,meteohub,2013-02-17 07:23:00,
2013-02-17 01:28:00,28.9,2.8,29.95,SSE,149,0.0,0.0,32,0.00,,,0.00,meteohub,2013-02-17 07:28:00,
2013-02-17 01:33:00,28.8,2.7,29.95,SSE,148,0.0,0.0,32,0.00,,,0.00,meteohub,2013-02-17 07:33:00,
2013-02-17 01:38:00,28.8,2.7,29.95,SSE,149,0.0,0.0,32,0.00,,,0.00,meteohub,2013-02-17 07:38:00,
2013-02-17 01:43:00,28.6,2.5,29.95,SSE,148,0.0,0.0,32,0.00,,,0.00,meteohub,2013-02-17 07:43:00,
2013-02-17 01:48:00,28.6,2.5,29.95,SSE,149,0.0,0.0,32,0.00,,,0.00,meteohub,2013-02-17 07:48:00,
2013-02-17 01:53:00,28.8,2.7,29.95,SSE,148,0.0,0.0,32,0.00,,,0.00,meteohub,2013-02-17 07:53:00,
2013-02-17 01:58:00,28.8,2.7,29.95,SSE,148,0.0,0.0,32,0.00,,,0.00,meteohub,2013-02-17 07:58:00,
2013-02-17 02:03:00,28.8,2.7,29.95,SSE,148,0.0,0.0,32,0.00,,,0.00,meteohub,2013-02-17 08:03:00,
2013-02-17 02:09:00,28.8,2.7,29.95,SSE,148,0.0,0.0,32,0.00,,,0.00,meteohub,2013-02-17 08:09:00,
2013-02-17 02:14:00,28.6,2.5,29.95,SSE,148,0.0,0.0,32,0.00,,,0.00,meteohub,2013-02-17 08:14:00,
2013-02-17 02:19:00,28.6,2.5,29.95,SSE,148,0.0,0.0,32,0.00,,,0.00,meteohub,2013-02-17 08:19:00,
2013-02-17 02:24:00,28.2,2.8,29.95,SSE,148,0.0,0.0,33,0.00,,,0.00,meteohub,2013-02-17 08:24:00,
2013-02-17 02:29:00,27.9,2.5,29.95,SSE,148,0.0,0.0,33,0.00,,,0.00,meteohub,2013-02-17 08:29:00,
2013-02-17 02:34:00,27.5,2.1,29.95,SSE,149,0.0,0.0,33,0.00,,,0.00,meteohub,2013-02-17 08:34:00,
2013-02-17 02:39:00,27.3,1.9,29.95,SSE,148,0.0,0.0,33,0.00,,,0.00,meteohub,2013-02-17 08:39:00,
2013-02-17 02:44:00,27.1,1.8,29.95,SSE,148,0.0,0.0,33,0.00,,,0.00,meteohub,2013-02-17 08:44:00,
2013-02-17 02:49:00,27.0,1.8,29.95,SSE,148,0.0,0.0,33,0.00,,,0.00,meteohub,2013-02-17 08:49:00,
2013-02-17 02:54:00,27.0,1.8,29.95,SSE,148,0.0,0.0,33,0.00,,,0.00,meteohub,2013-02-17 08:54:00,
2013-02-17 02:59:00,26.8,1.6,29.95,SSE,148,0.0,0.0,33,0.00,,,0.00,meteohub,2013-02-17 08:59:00,
2013-02-17 03:04:00,26.6,1.9,29.95,SSE,148,0.0,0.0,34,0.00,,,0.00,meteohub,2013-02-17 09:04:00,
2013-02-17 03:09:00,26.6,1.9,29.95,SSE,149,0.0,0.0,34,0.00,,,0.00,meteohub,2013-02-17 09:09:00,
2013-02-17 03:15:00,26.4,1.8,29.95,SSE,148,0.0,0.0,34,0.00,,,0.00,meteohub,2013-02-17 09:15:00,
2013-02-17 03:20:00,26.4,1.8,29.95,SSE,148,0.0,0.0,34,0.00,,,0.00,meteohub,2013-02-17 09:20:00,
2013-02-17 03:25:00,26.2,1.8,29.95,SSE,148,4.0,4.0,34,0.00,,,0.00,meteohub,2013-02-17 09:25:00,
2013-02-17 03:30:00,26.1,1.6,29.92,SSE,148,3.0,4.0,34,0.00,,,0.00,meteohub,2013-02-17 09:30:00,
2013-02-17 03:35:00,26.1,1.6,29.92,SSE,148,0.0,4.0,34,0.00,,,0.00,meteohub,2013-02-17 09:35:00,
2013-02-17 03:40:00,25.9,1.4,29.92,SSE,148,0.0,4.0,34,0.00,,,0.00,meteohub,2013-02-17 09:40:00,
2013-02-17 03:45:00,25.9,1.4,29.92,SSE,149,0.0,3.0,34,0.00,,,0.00,meteohub,2013-02-17 09:45:00,
2013-02-17 03:50:00,25.7,1.8,29.92,SSE,149,0.0,0.0,35,0.00,,,0.00,meteohub,2013-02-17 09:50:00,
2013-02-17 03:55:00,25.5,1.6,29.92,SSE,148,0.0,0.0,35,0.00,,,0.00,meteohub,2013-02-17 09:55:00,
2013-02-17 04:00:00,25.5,1.6,29.92,SSE,148,0.0,0.0,35,0.00,,,0.00,meteohub,2013-02-17 10:00:00,
2013-02-17 04:05:00,25.5,1.6,29.92,SSE,149,0.0,0.0,35,0.00,,,0.00,meteohub,2013-02-17 10:05:00,
2013-02-17 04:10:00,25.5,1.6,29.92,SSE,149,0.0,0.0,35,0.00,,,0.00,meteohub,2013-02-17 10:10:00,
2013-02-17 04:16:00,25.3,1.6,29.92,SSE,148,0.0,0.0,35,0.00,,,0.00,meteohub,2013-02-17 10:16:00,
2013-02-17 04:21:00,25.3,1.6,29.92,SSE,148,0.0,0.0,35,0.00,,,0.00,meteohub,2013-02-17 10:21:00,
2013-02-17 04:26:00,25.2,1.4,29.92,SSE,148,0.0,0.0,35,0.00,,,0.00,meteohub,2013-02-17 10:26:00,
2013-02-17 04:31:00,25.0,1.8,29.92,SSE,148,0.0,0.0,36,0.00,,,0.00,meteohub,2013-02-17 10:31:00,
2013-02-17 04:36:00,25.0,1.8,29.92,SSE,148,0.0,0.0,36,0.00,,,0.00,meteohub,2013-02-17 10:36:00,
2013-02-17 04:41:00,24.8,1.6,29.92,SSE,149,0.0,0.0,36,0.00,,,0.00,meteohub,2013-02-17 10:41:00,
2013-02-17 04:46:00,24.8,1.6,29.92,SSE,148,0.0,0.0,36,0.00,,,0.00,meteohub,2013-02-17 10:46:00,
2013-02-17 04:51:00,24.6,1.4,29.92,SSE,148,0.0,0.0,36,0.00,,,0.00,meteohub,2013-02-17 10:51:00,
2013-02-17 04:56:00,24.6,2.1,29.92,SSE,148,0.0,0.0,37,0.00,,,0.00,meteohub,2013-02-17 10:56:00,
2013-02-17 05:01:00,24.6,2.1,29.92,SSE,148,0.0,0.0,37,0.00,,,0.00,meteohub,2013-02-17 11:01:00,
2013-02-17 05:06:00,24.6,2.1,29.92,SSE,148,0.0,0.0,37,0.00,,,0.00,meteohub,2013-02-17 11:06:00,
2013-02-17 05:11:00,24.4,1.9,29.92,SSE,148,0.0,0.0,37,0.00,,,0.00,meteohub,2013-02-17 11:11:00,
2013-02-17 05:16:00,24.4,1.9,29.92,SSE,148,0.0,0.0,37,0.00,,,0.00,meteohub,2013-02-17 11:16:00,
2013-02-17 05:22:00,24.4,1.9,29.92,SSE,148,0.0,0.0,37,0.00,,,0.00,meteohub,2013-02-17 11:22:00,
2013-02-17 05:27:00,24.3,1.8,29.92,SSE,149,0.0,0.0,37,0.00,,,0.00,meteohub,2013-02-17 11:27:00,
2013-02-17 05:32:00,24.3,2.3,29.89,SSE,148,0.0,0.0,38,0.00,,,0.00,meteohub,2013-02-17 11:32:00,
2013-02-17 05:37:00,24.1,2.1,29.89,SSE,149,0.0,0.0,38,0.00,,,0.00,meteohub,2013-02-17 11:37:00,
2013-02-17 05:42:00,24.1,2.1,29.89,SSE,148,0.0,0.0,38,0.00,,,0.00,meteohub,2013-02-17 11:42:00,
2013-02-17 05:47:00,24.1,2.1,29.89,SSE,148,0.0,0.0,38,0.00,,,0.00,meteohub,2013-02-17 11:47:00,
2013-02-17 05:52:00,24.1,2.1,29.89,SSE,148,0.0,0.0,38,0.00,,,0.00,meteohub,2013-02-17 11:52:00,
2013-02-17 05:57:00,24.1,2.7,29.89,SSE,148,0.0,0.0,39,0.00,,,0.00,meteohub,2013-02-17 11:57:00,
2013-02-17 06:02:00,24.3,2.8,29.89,SSE,148,0.0,0.0,39,0.00,,,0.00,meteohub,2013-02-17 12:02:00,
2013-02-17 06:07:00,24.3,2.8,29.89,SSE,148,0.0,0.0,39,0.00,,,0.00,meteohub,2013-02-17 12:07:00,
2013-02-17 06:12:00,24.1,2.7,29.89,SSE,148,0.0,0.0,39,0.00,,,0.00,meteohub,2013-02-17 12:12:00,
2013-02-17 06:17:00,24.3,2.8,29.89,SSE,148,0.0,0.0,39,0.00,,,0.00,meteohub,2013-02-17 12:17:00,
2013-02-17 06:22:00,24.3,2.8,29.89,SSE,148,0.0,0.0,39,0.00,,,0.00,meteohub,2013-02-17 12:22:00,
2013-02-17 06:27:00,24.3,3.4,29.89,SSE,148,0.0,0.0,40,0.00,,,0.00,meteohub,2013-02-17 12:27:00,
2013-02-17 06:32:00,24.6,4.3,29.89,SSE,148,0.0,0.0,41,0.00,,,0.00,meteohub,2013-02-17 12:32:00,
2013-02-17 06:37:00,24.4,3.6,29.89,SSE,148,0.0,0.0,40,0.00,,,0.00,meteohub,2013-02-17 12:37:00,
2013-02-17 06:42:00,24.4,3.6,29.89,SSE,149,0.0,0.0,40,0.00,,,0.00,meteohub,2013-02-17 12:42:00,
2013-02-17 06:47:00,24.3,3.4,29.89,SSE,149,0.0,0.0,40,0.00,,,0.00,meteohub,2013-02-17 12:47:00,
2013-02-17 06:52:00,24.4,4.1,29.89,SSE,148,0.0,0.0,41,0.00,,,0.00,meteohub,2013-02-17 12:52:00,
2013-02-17 06:57:00,24.4,4.6,29.89,SSE,148,0.0,0.0,42,0.00,,,0.00,meteohub,2013-02-17 12:57:00,
2013-02-17 07:03:00,24.4,4.6,29.89,SSE,148,0.0,0.0,42,0.00,,,0.00,meteohub,2013-02-17 13:03:00,
2013-02-17 07:08:00,24.6,4.8,29.89,SSE,149,0.0,0.0,42,0.00,,,0.00,meteohub,2013-02-17 13:08:00,
2013-02-17 07:13:00,24.8,5.0,29.89,SSE,148,0.0,0.0,42,0.00,,,0.00,meteohub,2013-02-17 13:13:00,
2013-02-17 07:18:00,25.0,5.2,29.89,SSE,149,0.0,0.0,42,0.00,,,0.00,meteohub,2013-02-17 13:18:00,
2013-02-17 07:23:00,25.0,5.2,29.89,SSE,148,0.0,0.0,42,0.00,,,0.00,meteohub,2013-02-17 13:23:00,
2013-02-17 07:28:00,25.0,5.2,29.89,SSE,148,0.0,0.0,42,0.00,,,0.00,meteohub,2013-02-17 13:28:00,
2013-02-17 07:33:00,25.0,5.2,29.89,SSE,149,0.0,0.0,42,0.00,,,0.00,meteohub,2013-02-17 13:33:00,
2013-02-17 07:38:00,25.2,5.4,29.89,SSE,148,0.0,0.0,42,0.00,,,0.00,meteohub,2013-02-17 13:38:00,
2013-02-17 07:43:00,25.0,4.6,29.89,SSE,149,0.0,0.0,41,0.00,,,0.00,meteohub,2013-02-17 13:43:00,
2013-02-17 07:48:00,24.8,5.0,29.89,SSE,148,0.0,0.0,42,0.00,,,0.00,meteohub,2013-02-17 13:48:00,
2013-02-17 07:53:00,25.2,5.4,29.89,SSE,148,0.0,0.0,42,0.00,,,0.00,meteohub,2013-02-17 13:53:00,
2013-02-17 07:58:00,25.7,5.7,29.89,SSE,148,0.0,0.0,42,0.00,,,0.00,meteohub,2013-02-17 13:58:00,
2013-02-17 08:03:00,26.2,6.3,29.89,SSE,149,0.0,0.0,42,0.00,,,0.00,meteohub,2013-02-17 14:03:00,
2013-02-17 08:09:00,26.8,6.3,29.89,SSE,148,3.0,4.0,41,0.00,,,0.00,meteohub,2013-02-17 14:09:00,
2013-02-17 08:14:00,27.0,4.6,29.89,SSE,149,5.0,5.0,38,0.00,,,0.00,meteohub,2013-02-17 14:14:00,
2013-02-17 08:19:00,27.5,4.1,29.86,SSE,165,4.0,6.0,36,0.00,,,0.00,meteohub,2013-02-17 14:19:00,
2013-02-17 08:24:00,28.0,3.9,29.86,South,191,6.0,6.0,35,0.00,,,0.00,meteohub,2013-02-17 14:24:00,
2013-02-17 08:29:00,28.6,2.5,29.86,South,180,4.0,6.0,32,0.00,,,0.00,meteohub,2013-02-17 14:29:00,
2013-02-17 08:34:00,29.3,2.5,29.86,South,178,5.0,8.0,31,0.00,,,0.00,meteohub,2013-02-17 14:34:00,
2013-02-17 08:39:00,29.7,2.7,29.86,South,170,6.0,8.0,31,0.00,,,0.00,meteohub,2013-02-17 14:39:00,
2013-02-17 08:44:00,30.2,3.2,29.86,SSE,158,6.0,8.0,31,0.00,,,0.00,meteohub,2013-02-17 14:44:00,
2013-02-17 08:49:00,30.9,3.2,29.86,SSE,163,5.0,8.0,30,0.00,,,0.00,meteohub,2013-02-17 14:49:00,
2013-02-17 08:54:00,31.5,3.6,29.86,SSE,160,6.0,8.0,30,0.00,,,0.00,meteohub,2013-02-17 14:54:00,
2013-02-17 08:59:00,31.8,3.9,29.86,SSE,159,4.0,10.0,30,-99.99,,,0.00,meteohub,2013-02-17 14:59:00,
2013-02-17 09:04:00,32.4,2.8,29.86,South,187,11.0,11.0,28,-99.99,,,0.00,meteohub,2013-02-17 15:04:00,
2013-02-17 09:09:00,32.9,3.4,29.86,South,188,8.0,10.0,28,0.00,,,0.00,meteohub,2013-02-17 15:09:00,
2013-02-17 09:15:00,33.6,3.9,29.86,SSE,153,8.0,12.0,28,0.00,,,0.00,meteohub,2013-02-17 15:15:00,
2013-02-17 09:20:00,34.3,3.7,29.86,South,175,7.0,11.0,27,0.00,,,0.00,meteohub,2013-02-17 15:20:00,
2013-02-17 09:25:00,34.7,2.5,29.86,SSE,167,8.0,10.0,25,0.00,,,0.00,meteohub,2013-02-17 15:25:00,
2013-02-17 09:30:00,35.2,4.6,29.86,SSE,165,8.0,11.0,27,0.00,,,0.00,meteohub,2013-02-17 15:30:00,
2013-02-17 09:35:00,36.1,2.8,29.86,South,170,8.0,11.0,24,0.00,,,0.00,meteohub,2013-02-17 15:35:00,
2013-02-17 09:40:00,36.7,3.2,29.86,South,180,7.0,9.0,24,0.00,,,0.00,meteohub,2013-02-17 15:40:00,
2013-02-17 09:45:00,37.0,3.6,29.83,South,173,8.0,9.0,24,0.00,,,0.00,meteohub,2013-02-17 15:45:00,
2013-02-17 09:50:00,37.4,3.9,29.83,South,182,8.0,11.0,24,0.00,,,0.00,meteohub,2013-02-17 15:50:00,
2013-02-17 09:55:00,37.9,4.3,29.83,South,180,5.0,11.0,24,0.00,,,0.00,meteohub,2013-02-17 15:55:00,
2013-02-17 10:00:00,38.8,5.2,29.83,SSE,160,5.0,11.0,24,0.00,,,0.00,meteohub,2013-02-17 16:00:00,
2013-02-17 10:05:00,38.8,5.2,29.83,SSE,166,8.0,11.0,24,0.00,,,0.00,meteohub,2013-02-17 16:05:00,
2013-02-17 10:11:00,39.2,4.5,29.83,South,169,6.0,11.0,23,0.00,,,0.00,meteohub,2013-02-17 16:11:00,
2013-02-17 10:16:00,39.9,5.2,29.83,SSE,166,8.0,11.0,23,0.00,,,0.00,meteohub,2013-02-17 16:16:00,
2013-02-17 10:21:00,40.6,5.7,29.83,SSW,209,6.0,10.0,23,0.00,,,0.00,meteohub,2013-02-17 16:21:00,
2013-02-17 10:26:00,41.7,6.6,29.83,SSE,160,6.0,10.0,23,0.00,,,0.00,meteohub,2013-02-17 16:26:00,
2013-02-17 10:31:00,42.3,7.2,29.83,South,190,8.0,10.0,23,0.00,,,0.00,meteohub,2013-02-17 16:31:00,
2013-02-17 10:36:00,42.6,7.3,29.83,SSE,165,6.0,9.0,23,-99.99,,,0.00,meteohub,2013-02-17 16:36:00,
2013-02-17 10:41:00,43.3,8.1,29.83,WSW,240,5.0,9.0,23,-99.99,,,0.00,meteohub,2013-02-17 16:41:00,
2013-02-17 10:46:00,43.5,8.2,29.83,SSW,192,10.0,11.0,23,-99.99,,,0.00,meteohub,2013-02-17 16:46:00,
2013-02-17 10:51:00,44.1,8.6,29.83,SSE,154,11.0,11.0,23,-99.99,,,0.00,meteohub,2013-02-17 16:51:00,
2013-02-17 10:56:00,44.1,8.6,29.83,SSE,166,8.0,11.0,23,-99.99,,,0.00,meteohub,2013-02-17 16:56:00,
2013-02-17 11:01:00,43.9,8.4,29.83,SSE,147,5.0,12.0,23,-99.99,,,0.00,meteohub,2013-02-17 17:01:00,
2013-02-17 11:07:00,44.1,8.6,29.83,SSE,163,8.0,12.0,23,-99.99,,,0.00,meteohub,2013-02-17 17:07:00,
2013-02-17 11:12:00,44.6,8.1,29.83,SSE,158,8.0,11.0,22,-99.99,,,0.00,meteohub,2013-02-17 17:12:00,
2013-02-17 11:17:00,45.0,8.4,29.80,SSE,150,10.0,11.0,22,0.00,,,0.00,meteohub,2013-02-17 17:17:00,
2013-02-17 11:22:00,45.1,8.6,29.80,SSE,162,9.0,12.0,22,0.00,,,0.00,meteohub,2013-02-17 17:22:00,
2013-02-17 11:27:00,45.9,9.1,29.80,SSE,154,6.0,12.0,22,0.00,,,0.00,meteohub,2013-02-17 17:27:00,
2013-02-17 11:32:00,46.4,9.7,29.80,SSE,151,8.0,12.0,22,0.00,,,0.00,meteohub,2013-02-17 17:32:00,
2013-02-17 11:37:00,46.9,10.0,29.80,SSE,153,8.0,13.0,22,0.00,,,0.00,meteohub,2013-02-17 17:37:00,
2013-02-17 11:42:00,47.5,10.6,29.80,South,179,10.0,13.0,22,0.00,,,0.00,meteohub,2013-02-17 17:42:00,
2013-02-17 11:47:00,48.0,10.9,29.80,SE,136,10.0,13.0,22,0.00,,,0.00,meteohub,2013-02-17 17:47:00,
2013-02-17 11:52:00,48.0,10.9,29.80,SSE,150,9.0,13.0,22,0.00,,,0.00,meteohub,2013-02-17 17:52:00,
2013-02-17 11:57:00,48.7,10.6,29.80,South,179,11.0,13.0,21,0.00,,,0.00,meteohub,2013-02-17 17:57:00,
2013-02-17 12:02:00,49.5,11.1,29.77,SSE,157,11.0,14.0,21,0.00,,,0.00,meteohub,2013-02-17 18:02:00,
2013-02-17 12:07:00,49.5,11.1,29.77,South,187,9.0,14.0,21,0.00,,,0.00,meteohub,2013-02-17 18:07:00,
2013-02-17 12:13:00,49.6,11.3,29.77,South,187,10.0,13.0,21,0.00,,,0.00,meteohub,2013-02-17 18:13:00,
2013-02-17 12:18:00,50.2,11.7,29.77,SSW,192,13.0,17.0,21,0.00,,,0.00,meteohub,2013-02-17 18:18:00,
2013-02-17 12:23:00,50.5,12.0,29.77,South,178,11.0,17.0,21,0.00,,,0.00,meteohub,2013-02-17 18:23:00,
2013-02-17 12:28:00,51.1,12.6,29.77,SSE,156,11.0,17.0,21,0.00,,,0.00,meteohub,2013-02-17 18:28:00,
2013-02-17 12:33:00,51.6,12.9,29.74,South,174,14.0,16.0,21,0.00,,,0.00,meteohub,2013-02-17 18:33:00,
2013-02-17 12:38:00,52.2,13.5,29.74,South,176,13.0,21.0,21,0.00,,,0.00,meteohub,2013-02-17 18:38:00,
2013-02-17 12:43:00,52.0,13.3,29.74,South,169,9.0,21.0,21,0.00,,,0.00,meteohub,2013-02-17 18:43:00,
2013-02-17 12:48:00,52.3,13.5,29.74,South,188,12.0,21.0,21,0.00,,,0.00,meteohub,2013-02-17 18:48:00,
2013-02-17 12:53:00,52.9,14.0,29.74,South,176,13.0,17.0,21,0.00,,,0.00,meteohub,2013-02-17 18:53:00,
2013-02-17 12:58:00,53.1,14.2,29.74,SSE,163,12.0,17.0,21,0.00,,,0.00,meteohub,2013-02-17 18:58:00,
2013-02-17 13:03:00,53.2,14.4,29.71,SSE,160,14.0,17.0,21,0.00,,,0.00,meteohub,2013-02-17 19:03:00,
2013-02-17 13:09:00,53.8,13.6,29.71,South,178,11.0,17.0,20,0.00,,,0.00,meteohub,2013-02-17 19:09:00,
2013-02-17 13:14:00,54.1,14.0,29.71,South,190,9.0,17.0,20,0.00,,,0.00,meteohub,2013-02-17 19:14:00,
2013-02-17 13:19:00,54.5,14.2,29.71,SSE,151,10.0,17.0,20,0.00,,,0.00,meteohub,2013-02-17 19:19:00,
2013-02-17 13:24:00,54.7,14.4,29.71,SSE,163,11.0,17.0,20,0.00,,,0.00,meteohub,2013-02-17 19:24:00,
2013-02-17 13:29:00,55.0,12.2,29.71,South,173,15.0,15.0,18,0.00,,,0.00,meteohub,2013-02-17 19:29:00,
2013-02-17 13:34:00,55.4,11.3,29.68,South,170,10.0,17.0,17,0.00,,,0.00,meteohub,2013-02-17 19:34:00,
2013-02-17 13:39:00,55.6,15.1,29.68,South,175,14.0,17.0,20,0.00,,,0.00,meteohub,2013-02-17 19:39:00,
2013-02-17 13:44:00,56.1,15.6,29.68,SSE,165,13.0,17.0,20,0.00,,,0.00,meteohub,2013-02-17 19:44:00,
2013-02-17 13:49:00,56.7,16.0,29.68,South,189,15.0,17.0,20,0.00,,,0.00,meteohub,2013-02-17 19:49:00,
2013-02-17 13:54:00,56.7,12.4,29.68,SW,235,14.0,17.0,17,0.00,,,0.00,meteohub,2013-02-17 19:54:00,
2013-02-17 13:59:00,56.8,12.4,29.68,SSE,166,8.0,17.0,17,0.00,,,0.00,meteohub,2013-02-17 19:59:00,
2013-02-17 14:05:00,57.0,12.6,29.68,South,190,13.0,17.0,17,0.00,,,0.00,meteohub,2013-02-17 20:05:00,
2013-02-17 14:10:00,57.0,12.6,29.68,South,183,15.0,17.0,17,0.00,,,0.00,meteohub,2013-02-17 20:10:00,
2013-02-17 14:15:00,57.2,12.7,29.65,South,185,10.0,18.0,17,0.00,,,0.00,meteohub,2013-02-17 20:15:00,
2013-02-17 14:20:00,57.6,15.6,29.65,South,178,13.0,18.0,19,0.00,,,0.00,meteohub,2013-02-17 20:20:00,
2013-02-17 14:25:00,57.9,13.3,29.65,SSW,199,13.0,16.0,17,0.00,,,0.00,meteohub,2013-02-17 20:25:00,
2013-02-17 14:30:00,58.3,16.2,29.65,South,178,15.0,16.0,19,0.00,,,0.00,meteohub,2013-02-17 20:30:00,
2013-02-17 14:35:00,58.3,16.2,29.65,SSW,206,8.0,20.0,19,0.00,,,0.00,meteohub,2013-02-17 20:35:00,
2013-02-17 14:40:00,58.5,16.3,29.65,South,177,9.0,20.0,19,0.00,,,0.00,meteohub,2013-02-17 20:40:00,
2013-02-17 14:45:00,58.6,16.5,29.65,SSE,167,8.0,18.0,19,0.00,,,0.00,meteohub,2013-02-17 20:45:00,
2013-02-17 14:51:00,58.6,16.5,29.65,SSE,150,12.0,17.0,19,0.00,,,0.00,meteohub,2013-02-17 20:51:00,
2013-02-17 14:56:00,58.6,16.5,29.65,South,171,9.0,17.0,19,0.00,,,0.00,meteohub,2013-02-17 20:56:00,
2013-02-17 15:01:00,58.5,16.3,29.65,SSW,196,13.0,16.0,19,0.00,,,0.00,meteohub,2013-02-17 21:01:00,
2013-02-17 15:06:00,58.8,16.7,29.65,SSE,161,13.0,15.0,19,0.00,,,0.00,meteohub,2013-02-17 21:06:00,
2013-02-17 15:11:00,59.2,16.9,29.65,South,176,8.0,19.0,19,0.00,,,0.00,meteohub,2013-02-17 21:11:00,
2013-02-17 15:16:00,59.5,17.2,29.65,South,173,13.0,19.0,19,0.00,,,0.00,meteohub,2013-02-17 21:16:00,
2013-02-17 15:21:00,59.7,17.4,29.65,South,185,13.0,17.0,19,0.00,,,0.00,meteohub,2013-02-17 21:21:00,
2013-02-17 15:26:00,59.5,17.2,29.65,SSW,206,8.0,16.0,19,0.00,,,0.00,meteohub,2013-02-17 21:26:00,
2013-02-17 15:31:00,59.7,17.4,29.62,South,189,9.0,16.0,19,0.00,,,0.00,meteohub,2013-02-17 21:31:00,
2013-02-17 15:36:00,60.3,17.8,29.62,SSW,203,15.0,18.0,19,0.00,,,0.00,meteohub,2013-02-17 21:36:00,
2013-02-17 15:41:00,60.3,17.8,29.62,South,191,8.0,18.0,19,0.00,,,0.00,meteohub,2013-02-17 21:41:00,
2013-02-17 15:46:00,60.1,17.6,-100.00,South,178,15.0,15.0,19,0.00,,,0.00,meteohub,2013-02-17 21:46:00,
2013-02-17 15:52:00,59.9,17.6,-100.00,South,176,15.0,17.0,19,0.00,,,0.00,meteohub,2013-02-17 21:52:00,
2013-02-17 15:57:00,59.9,17.6,-100.00,SSW,201,12.0,17.0,19,0.00,,,0.00,meteohub,2013-02-17 21:57:00,
2013-02-17 16:02:00,60.1,17.6,29.62,SSW,206,12.0,17.0,19,0.00,,,0.00,meteohub,2013-02-17 22:02:00,
2013-02-17 16:07:00,60.3,17.8,29.62,SSE,164,8.0,15.0,19,0.00,,,0.00,meteohub,2013-02-17 22:07:00,
2013-02-17 16:12:00,60.6,18.1,29.62,South,180,9.0,15.0,19,0.00,,,0.00,meteohub,2013-02-17 22:12:00,
2013-02-17 16:17:00,60.4,18.0,29.59,South,188,13.0,17.0,19,-99.99,,,0.00,meteohub,2013-02-17 22:17:00,
2013-02-17 16:22:00,60.3,17.8,29.59,SSE,149,13.0,17.0,19,-99.99,,,0.00,meteohub,2013-02-17 22:22:00,
2013-02-17 16:27:00,60.1,17.6,29.59,SSE,158,8.0,17.0,19,-99.99,,,0.00,meteohub,2013-02-17 22:27:00,
2013-02-17 16:32:00,60.1,17.6,29.59,SSW,202,9.0,17.0,19,-99.99,,,0.00,meteohub,2013-02-17 22:32:00,
2013-02-17 16:37:00,59.9,17.6,29.59,South,182,9.0,17.0,19,-99.99,,,0.00,meteohub,2013-02-17 22:37:00,
2013-02-17 16:42:00,59.4,17.1,29.59,South,177,9.0,17.0,19,-99.99,,,0.00,meteohub,2013-02-17 22:42:00,
2013-02-17 16:47:00,58.8,16.7,29.59,South,174,8.0,15.0,19,-99.99,,,0.00,meteohub,2013-02-17 22:47:00,
2013-02-17 16:52:00,58.5,13.8,29.59,SSW,211,8.0,17.0,17,-99.99,,,0.00,meteohub,2013-02-17 22:52:00,
2013-02-17 16:57:00,58.3,13.6,29.59,South,189,8.0,17.0,17,-99.99,,,0.00,meteohub,2013-02-17 22:57:00,
2013-02-17 17:02:00,58.1,13.5,29.59,SSE,159,7.0,17.0,17,0.00,,,0.00,meteohub,2013-02-17 23:02:00,
2013-02-17 17:08:00,57.9,13.3,29.59,SSE,156,8.0,15.0,17,0.00,,,0.00,meteohub,2013-02-17 23:08:00,
2013-02-17 17:13:00,57.7,13.3,29.59,SSE,165,8.0,15.0,17,0.00,,,0.00,meteohub,2013-02-17 23:13:00,
2013-02-17 17:18:00,57.6,13.1,29.59,SSE,153,8.0,15.0,17,0.00,,,0.00,meteohub,2013-02-17 23:18:00,
2013-02-17 17:23:00,57.2,12.7,29.59,SSE,150,9.0,15.0,17,0.00,,,0.00,meteohub,2013-02-17 23:23:00,
2013-02-17 17:28:00,56.8,12.4,29.59,South,177,8.0,13.0,17,0.00,,,0.00,meteohub,2013-02-17 23:28:00,
2013-02-17 17:33:00,56.7,12.4,29.56,South,177,6.0,13.0,17,0.00,,,0.00,meteohub,2013-02-17 23:33:00,
2013-02-17 17:38:00,56.5,12.2,29.56,SSE,153,6.0,13.0,17,0.00,,,0.00,meteohub,2013-02-17 23:38:00,
2013-02-17 17:43:00,56.3,12.0,29.56,SSE,167,9.0,13.0,17,0.00,,,0.00,meteohub,2013-02-17 23:43:00,
2013-02-17 17:48:00,55.9,11.7,29.59,South,174,11.0,13.0,17,0.00,,,0.00,meteohub,2013-02-17 23:48:00,
2013-02-17 17:53:00,55.8,11.7,29.59,SSE,148,8.0,13.0,17,0.00,,,0.00,meteohub,2013-02-17 23:53:00,
2013-02-17 17:58:00,55.4,11.3,29.59,SE,144,6.0,13.0,17,-99.99,,,0.00,meteohub,2013-02-17 23:58:00,
2013-02-17 18:03:00,55.2,12.4,29.59,South,175,8.0,11.0,18,-99.99,,,0.00,meteohub,2013-02-18 00:03:00,
2013-02-17 18:08:00,54.9,12.2,29.59,SSE,148,6.0,11.0,18,-99.99,,,0.00,meteohub,2013-02-18 00:08:00,
2013-02-17 18:14:00,54.5,11.8,29.59,SSE,152,9.0,11.0,18,-99.99,,,0.00,meteohub,2013-02-18 00:14:00,
2013-02-17 18:19:00,54.1,11.5,29.59,SSE,155,6.0,11.0,18,-99.99,,,0.00,meteohub,2013-02-18 00:19:00,
2013-02-17 18:24:00,53.6,11.1,29.59,South,186,8.0,11.0,18,-99.99,,,0.00,meteohub,2013-02-18 00:24:00,
2013-02-17 18:29:00,53.6,11.1,29.59,SSE,165,9.0,11.0,18,0.00,,,0.00,meteohub,2013-02-18 00:29:00,
2013-02-17 18:34:00,53.6,11.1,29.59,SE,144,10.0,11.0,18,0.00,,,0.00,meteohub,2013-02-18 00:34:00,
2013-02-17 18:39:00,53.2,10.8,29.59,SSE,163,8.0,12.0,18,0.00,,,0.00,meteohub,2013-02-18 00:39:00,
2013-02-17 18:44:00,52.9,10.6,29.59,SSE,151,8.0,12.0,18,0.00,,,0.00,meteohub,2013-02-18 00:44:00,
2013-02-17 18:49:00,52.7,10.4,29.59,SSE,150,9.0,12.0,18,0.00,,,0.00,meteohub,2013-02-18 00:49:00,
2013-02-17 18:54:00,52.5,10.2,29.59,SSE,153,8.0,11.0,18,0.00,,,0.00,meteohub,2013-02-18 00:54:00,
2013-02-17 18:59:00,52.2,9.9,29.59,SSE,167,8.0,13.0,18,0.00,,,0.00,meteohub,2013-02-18 00:59:00,
2013-02-17 19:04:00,52.0,9.7,29.59,SE,139,6.0,13.0,18,0.00,,,0.00,meteohub,2013-02-18 01:04:00,
2013-02-17 19:10:00,51.8,9.7,29.59,SSE,147,9.0,13.0,18,0.00,,,0.00,meteohub,2013-02-18 01:10:00,
2013-02-17 19:15:00,51.6,10.8,29.59,SSE,149,6.0,11.0,19,0.00,,,0.00,meteohub,2013-02-18 01:15:00,
2013-02-17 19:20:00,51.4,10.6,29.59,SSE,164,8.0,13.0,19,0.00,,,0.00,meteohub,2013-02-18 01:20:00,
2013-02-17 19:25:00,51.3,10.4,29.59,SE,145,8.0,13.0,19,0.00,,,0.00,meteohub,2013-02-18 01:25:00,
2013-02-17 19:30:00,51.3,10.4,29.56,SSE,151,9.0,11.0,19,0.00,,,0.00,meteohub,2013-02-18 01:30:00,
2013-02-17 19:35:00,51.3,10.4,29.56,South,181,10.0,15.0,19,0.00,,,0.00,meteohub,2013-02-18 01:35:00,
2013-02-17 19:40:00,51.4,10.6,29.56,SSE,152,8.0,15.0,19,0.00,,,0.00,meteohub,2013-02-18 01:40:00,
2013-02-17 19:45:00,51.4,10.6,29.56,SSE,156,11.0,15.0,19,0.00,,,0.00,meteohub,2013-02-18 01:45:00,
2013-02-17 19:50:00,51.3,10.4,29.56,SSE,161,10.0,17.0,19,0.00,,,0.00,meteohub,2013-02-18 01:50:00,
2013-02-17 19:55:00,51.3,10.4,29.56,SSE,168,9.0,17.0,19,0.00,,,0.00,meteohub,2013-02-18 01:55:00,
2013-02-17 20:00:00,51.3,10.4,29.56,South,189,10.0,15.0,19,0.00,,,0.00,meteohub,2013-02-18 02:00:00,
2013-02-17 20:05:00,51.1,10.2,29.56,South,175,8.0,14.0,19,0.00,,,0.00,meteohub,2013-02-18 02:05:00,
2013-02-17 20:10:00,50.9,10.0,29.56,SSE,167,10.0,13.0,19,-99.99,,,0.00,meteohub,2013-02-18 02:10:00,
2013-02-17 20:16:00,50.7,9.9,29.56,South,172,8.0,13.0,19,-99.99,,,0.00,meteohub,2013-02-18 02:16:00,
2013-02-17 20:21:00,50.7,9.9,29.56,South,188,11.0,13.0,19,-99.99,,,0.00,meteohub,2013-02-18 02:21:00,
2013-02-17 20:26:00,50.5,9.9,29.56,SSE,161,12.0,14.0,19,-99.99,,,0.00,meteohub,2013-02-18 02:26:00,
2013-02-17 20:31:00,50.2,9.5,29.56,South,187,12.0,15.0,19,-99.99,,,0.00,meteohub,2013-02-18 02:31:00,
2013-02-17 20:36:00,50.0,9.3,29.56,SSW,192,10.0,15.0,19,-99.99,,,0.00,meteohub,2013-02-18 02:36:00,
2013-02-17 20:41:00,49.8,9.1,29.56,South,186,9.0,15.0,19,-99.99,,,0.00,meteohub,2013-02-18 02:41:00,
2013-02-17 20:46:00,49.8,9.1,29.56,South,176,8.0,15.0,19,-99.99,,,0.00,meteohub,2013-02-18 02:46:00,
2013-02-17 20:51:00,49.6,9.0,29.56,SSE,168,11.0,15.0,19,-99.99,,,0.00,meteohub,2013-02-18 02:51:00,
2013-02-17 20:56:00,49.6,9.0,29.56,South,169,11.0,15.0,19,-99.99,,,0.00,meteohub,2013-02-18 02:56:00,
2013-02-17 21:01:00,49.3,8.8,29.56,South,176,15.0,15.0,19,-99.99,,,0.00,meteohub,2013-02-18 03:01:00,
2013-02-17 21:07:00,49.1,8.6,29.56,SSE,164,12.0,16.0,19,-99.99,,,0.00,meteohub,2013-02-18 03:07:00,
2013-02-17 21:12:00,48.7,8.2,29.56,SSE,159,15.0,16.0,19,-99.99,,,0.00,meteohub,2013-02-18 03:12:00,
2013-02-17 21:17:00,48.6,8.1,29.56,SSE,158,6.0,16.0,19,-99.99,,,0.00,meteohub,2013-02-18 03:17:00,
2013-02-17 21:22:00,48.2,7.9,29.56,South,169,10.0,15.0,19,-99.99,,,0.00,meteohub,2013-02-18 03:22:00,
2013-02-17 21:27:00,48.2,7.9,29.56,South,178,12.0,15.0,19,-99.99,,,0.00,meteohub,2013-02-18 03:27:00,
2013-02-17 21:32:00,48.0,7.7,29.56,SSE,159,9.0,15.0,19,-99.99,,,0.00,meteohub,2013-02-18 03:32:00,
2013-02-17 21:37:00,47.8,7.5,29.56,SSE,167,11.0,14.0,19,-99.99,,,0.00,meteohub,2013-02-18 03:37:00,
2013-02-17 21:42:00,47.8,7.5,29.56,South,171,13.0,14.0,19,-99.99,,,0.00,meteohub,2013-02-18 03:42:00,
2013-02-17 21:47:00,47.7,7.3,29.56,South,182,12.0,15.0,19,-99.99,,,0.00,meteohub,2013-02-18 03:47:00,
2013-02-17 21:52:00,47.7,7.3,29.56,South,176,9.0,15.0,19,-99.99,,,0.00,meteohub,2013-02-18 03:52:00,
2013-02-17 21:57:00,47.5,7.3,29.56,South,171,8.0,15.0,19,-99.99,,,0.00,meteohub,2013-02-18 03:57:00,
2013-02-17 22:02:00,47.3,7.2,29.53,SSW,192,9.0,15.0,19,-99.99,,,0.00,meteohub,2013-02-18 04:02:00,
2013-02-17 22:07:00,47.3,7.2,29.53,South,174,8.0,15.0,19,-99.99,,,0.00,meteohub,2013-02-18 04:07:00,
2013-02-17 22:12:00,47.1,7.0,29.53,SSE,163,11.0,16.0,19,-99.99,,,0.00,meteohub,2013-02-18 04:12:00,
2013-02-17 22:17:00,47.1,7.0,29.53,SSE,168,8.0,16.0,19,-99.99,,,0.00,meteohub,2013-02-18 04:17:00,
2013-02-17 22:22:00,46.9,6.8,29.53,South,191,13.0,16.0,19,-99.99,,,0.00,meteohub,2013-02-18 04:22:00,
2013-02-17 22:27:00,46.9,6.8,29.53,SSE,163,8.0,14.0,19,-99.99,,,0.00,meteohub,2013-02-18 04:27:00,
2013-02-17 22:32:00,46.8,6.6,29.53,South,190,8.0,13.0,19,-99.99,,,0.00,meteohub,2013-02-18 04:32:00,
2013-02-17 22:37:00,46.6,6.4,29.53,South,181,8.0,13.0,19,-99.99,,,0.00,meteohub,2013-02-18 04:37:00,
2013-02-17 22:42:00,46.6,9.7,29.53,South,183,8.0,13.0,22,-99.99,,,0.00,meteohub,2013-02-18 04:42:00,
2013-02-17 22:47:00,46.4,9.7,29.53,SSW,194,6.0,13.0,22,-99.99,,,0.00,meteohub,2013-02-18 04:47:00,
2013-02-17 22:52:00,46.2,9.5,29.53,South,186,11.0,11.0,22,-99.99,,,0.00,meteohub,2013-02-18 04:52:00,
2013-02-17 22:57:00,46.0,9.3,29.53,SSW,198,9.0,12.0,22,-99.99,,,0.00,meteohub,2013-02-18 04:57:00,
2013-02-17 23:00:00,46.0,9.3,29.53,South,177,6.0,12.0,22,-99.99,,,0.00,meteohub,2013-02-18 05:00:00,
2013-02-17 23:01:00,46.0,9.3,29.53,SSW,196,8.0,12.0,22,-99.99,,,0.00,meteohub,2013-02-18 05:01:00,
2013-02-17 23:02:00,46.0,9.3,29.53,South,186,6.0,12.0,22,-99.99,,,0.00,meteohub,2013-02-18 05:02:00,
2013-02-17 23:07:00,45.9,9.1,29.53,South,172,8.0,12.0,22,-99.99,,,0.00,meteohub,2013-02-18 05:07:00,
2013-02-17 23:12:00,45.9,9.1,29.53,South,177,6.0,11.0,22,-99.99,,,0.00,meteohub,2013-02-18 05:12:00,
2013-02-17 23:17:00,45.9,9.1,29.53,South,189,8.0,10.0,22,0.00,,,0.00,meteohub,2013-02-18 05:17:00,
2013-02-17 23:22:00,45.9,9.1,29.53,SSW,194,5.0,10.0,22,0.00,,,0.00,meteohub,2013-02-18 05:22:00,
2013-02-17 23:27:00,45.7,9.0,29.53,SSE,167,6.0,10.0,22,0.00,,,0.00,meteohub,2013-02-18 05:27:00,
2013-02-17 23:33:00,45.7,9.0,29.53,SSW,198,5.0,10.0,22,0.00,,,0.00,meteohub,2013-02-18 05:33:00,
2013-02-17 23:38:00,45.5,8.8,29.53,SSW,195,6.0,10.0,22,0.00,,,0.00,meteohub,2013-02-18 05:38:00,
2013-02-17 23:43:00,45.5,8.8,29.53,South,184,3.0,10.0,22,0.00,,,0.00,meteohub,2013-02-18 05:43:00,
2013-02-17 23:48:00,45.5,8.8,29.53,South,186,2.0,8.0,22,0.00,,,0.00,meteohub,2013-02-18 05:48:00,
2013-02-17 23:53:00,45.3,8.8,29.53,SSW,212,4.0,6.0,22,0.00,,,0.00,meteohub,2013-02-18 05:53:00,
2013-02-17 23:58:00,45.1,8.6,29.53,SSW,213,0.0,6.0,22,0.00,,,0.00,meteohub,2013-02-18 05:58:00,